Regional Weather Roundup
Issued by NWS

Home | Current Version | Previous Version | Graphics & Text | Print | Product List | Glossary On
Versions: 1 2 3 4 5 6 7 8 9 10 11 12 13 14 15 16 17 18 19 20 21 22 23 24 25 26 27 28 29 30 31 32 33 34 35 36 37 38 39 40 41 42 43 44 45 46 47 48 49 50
000
ASUS43 KOAX 290702
RWRNE

WEATHER ROUNDUP FOR NEBRASKA
NATIONAL WEATHER SERVICE OMAHA NE
100 AM CST THU JAN 29 2015

NOTES: SATELLITE DATA IS BEING USED TO AUGMENT CLOUD COVER ABOVE
       12000 FEET.
       "FAIR" INDICATES FEW OR NO CLOUDS BELOW 12,000 FEET WITH NO
       SIGNIFICANT WEATHER AND/OR OBSTRUCTIONS TO VISIBILITY.

  * THESE STATIONS DO NOT REPORT WEATHER SUCH AS RAIN...SNOW OR FOG.

NEZ001>004-019>022-054>056-290800-
NEBRASKA PANHANDLE

CITY           SKY/WX    TMP DP  RH WIND       PRES   REMARKS
SCOTTSBLUFF    CLOUDY    38  27  64 NW14      30.34R WCI  30
ALLIANCE       CLEAR     29  26  89 NW9       30.31R WCI  20
CHADRON        CLEAR     24  22  91 SE5       30.36R WCI  18
SIDNEY         CLOUDY    36  28  73 N8        30.31R WCI  30
$$

NEZ057>060-069>072-079>082-290800-
SOUTHWEST NEBRASKA

CITY           SKY/WX    TMP DP  RH WIND       PRES   REMARKS
NORTH PLATTE   CLOUDY    37  29  72 N23G38    30.25R WCI  26
IMPERIAL       CLEAR     37  28  70 N20       30.27R WCI  27
LEXINGTON      CLOUDY    39  31  73 N23G38    30.21R WCI  28
MCCOOK         CLEAR     41  32  70 N21G28    30.23R
$$

NEZ005>010-023>029-035>040-094-290800-
NORTH CENTRAL NEBRASKA

CITY           SKY/WX    TMP DP  RH WIND       PRES   REMARKS
VALENTINE      CLOUDY    36  25  64 NW21G30   30.27R WCI  25
BROKEN BOW     CLOUDY    37  30  75 N35G45    30.21R WCI  24
ORD            CLOUDY    36  29  75 NW23G33   30.18R WCI  24
$$

NEZ041-046>049-061>064-073>077-083>087-290800-
SOUTH CENTRAL NEBRASKA

CITY           SKY/WX    TMP DP  RH WIND       PRES   REMARKS
GRAND ISLAND   CLOUDY    37  30  75 N35G48    30.16R WCI  24
AURORA         CLOUDY    38  30  74 N25G47    30.13R WCI  26
HASTINGS       CLOUDY    39  30  70 N33G41    30.14R WCI  27
KEARNEY *      CLOUDY    39  28  65 N36G44    30.17R WCI  26
YORK           CLOUDY    37  32  81 N23G40    30.10R WCI  26
$$

NEZ011>018-030>034-042>045-290800-
NORTHEAST NEBRASKA

CITY           SKY/WX    TMP DP  RH WIND       PRES   REMARKS
NORFOLK        CLOUDY    36  29  75 NW30G39   30.10R WCI  23
ALBION         CLOUDY    36  29  76 N25G39    30.13R WCI  23
BLAIR          CLOUDY    37  32  79 NW36G48   30.00R WCI  24
COLUMBUS *     CLOUDY    36  27  69 NW29G40   30.09R WCI  23
FREMONT        CLOUDY    38  32  80 NW25G39   30.07R WCI  26
TEKAMAH        CLOUDY    38  30  73 N31G46    30.04R WCI  25
$$

NEZ050>053-065>068-078-088>093-290800-
SOUTHEAST NEBRASKA

CITY           SKY/WX    TMP DP  RH WIND       PRES   REMARKS
LINCOLN        CLOUDY    40  32  73 N23G31    30.06R WCI  30
OMAHA EPPLEY   CLOUDY    38  32  79 N35G44    29.99R WCI  25
FALLS CITY     CLOUDY    47  37  68 NW17G26   29.95R
$$

NEZ044-045-051>053-067-290800-
OMAHA AREA

CITY           SKY/WX    TMP DP  RH WIND       PRES   REMARKS
OMAHA EPPLEY   CLOUDY    38  32  79 N35G44    29.99R WCI  25
BLAIR          CLOUDY    37  32  79 NW36G48   30.00R WCI  24
FREMONT        CLOUDY    38  32  80 NW25G39   30.07R WCI  26
OFFUTT AFB     CLOUDY    39  33  79 NW31G43   29.99R WCI  26
$$



USA.gov is the U.S. government's official web portal to all federal, state and local government web resources and services.